| time (UTC) | temp F | wind direction | speed MPH | gust MPH | rain 1hr in | rain 24hr in | rain mn in | humidity % | barometer mb |
| 20260504180836 | 55 | 77 | 0.0 | 0.0 | 0.00 | 0.00 | 0.00 | 87 | 1013.8 |
| 20260504180333 | 55 | 90 | 0.0 | 0.0 | 0.00 | 0.00 | 0.00 | 87 | 1013.9 |
| 20260504175833 | 55 | 93 | 0.0 | 1.0 | 0.00 | 0.00 | 0.00 | 87 | 1014.0 |
| 20260504175336 | 56 | 60 | 0.0 | 1.0 | 0.00 | 0.00 | 0.00 | 86 | 1014.0 |
| 20260504174832 | 56 | 105 | 0.0 | 1.0 | 0.00 | 0.00 | 0.00 | 86 | 1014.0 |
| 20260504173824 | 56 | 41 | 0.0 | 1.0 | 0.00 | 0.00 | 0.00 | 86 | 1014.0 |
| 20260504173308 | 56 | 127 | 0.0 | 0.0 | 0.00 | 0.00 | 0.00 | 85 | 1013.9 |
| 20260504172809 | 56 | 83 | 0.0 | 1.0 | 0.00 | 0.00 | 0.00 | 86 | 1013.9 |
| 20260504171806 | 56 | 91 | 0.0 | 1.0 | 0.00 | 0.00 | 0.00 | 85 | 1013.8 |
| 20260504171309 | 56 | 27 | 0.0 | 2.0 | 0.00 | 0.00 | 0.00 | 85 | 1013.8 |
| 20260504170804 | 57 | 127 | 0.0 | 2.0 | 0.00 | 0.00 | 0.00 | 85 | 1013.8 |
| 20260504160207 | 58 | 305 | 0.0 | 2.0 | 0.00 | 0.00 | 0.00 | 84 | 1013.7 |
| 20260504150705 | 59 | 148 | 0.0 | 2.0 | 0.00 | 0.00 | 0.00 | 83 | 1013.7 |
| 20260504150211 | 59 | 224 | 0.0 | 2.0 | 0.00 | 0.00 | 0.00 | 83 | 1013.8 |
| 20260504140638 | 60 | 56 | 0.0 | 4.0 | 0.00 | 0.00 | 0.00 | 83 | 1013.8 |
| 20260504140132 | 61 | 68 | 0.0 | 1.0 | 0.00 | 0.00 | 0.00 | 84 | 1013.8 |
| 20260504130516 | 61 | 32 | 0.0 | 1.0 | 0.00 | 0.00 | 0.00 | 86 | 1013.9 |
| 20260504100205 | 57 | 42 | 0.0 | 0.0 | 0.00 | 0.10 | 0.00 | 91 | 1013.9 |
| 20260504081957 | 57 | 41 | 0.0 | 0.0 | 0.00 | 0.11 | 0.00 | 92 | 1013.2 |
| 20260504081434 | 57 | 41 | 0.0 | 0.0 | 0.00 | 0.11 | 0.00 | 92 | 1013.2 |
| 20260504080935 | 57 | 41 | 0.0 | 0.0 | 0.00 | 0.11 | 0.00 | 92 | 1013.1 |
| 20260504080435 | 57 | 41 | 0.0 | 0.0 | 0.00 | 0.11 | 0.00 | 92 | 1013.0 |
| 20260504070335 | 56 | 41 | 0.0 | 0.0 | 0.00 | 0.11 | 0.00 | 92 | 1012.6 |
| 20260504050632 | 55 | 259 | 0.0 | 0.0 | 0.00 | 0.11 | 0.00 | 92 | 1011.9 |
| 20260504050135 | 55 | 271 | 0.0 | 0.0 | 0.00 | 0.12 | 0.00 | 92 | 1011.8 |
| 20260504045649 | 55 | 271 | 0.0 | 0.0 | 0.00 | 0.12 | 0.00 | 92 | 1011.6 |
| 20260504045134 | 55 | 271 | 0.0 | 0.0 | 0.00 | 0.12 | 0.00 | 92 | 1011.6 |
| 20260504044106 | 55 | 271 | 0.0 | 0.0 | 0.00 | 0.12 | 0.00 | 92 | 1011.6 |
| 20260504043608 | 55 | 271 | 0.0 | 1.0 | 0.00 | 0.12 | 0.00 | 92 | 1011.5 |
| 20260504043108 | 55 | 271 | 0.0 | 1.0 | 0.00 | 0.12 | 0.00 | 92 | 1011.6 |
| 20260504042540 | 55 | 86 | 0.0 | 0.0 | 0.00 | 0.12 | 0.00 | 92 | 1011.6 |
| 20260504042034 | 55 | 79 | 0.0 | 0.0 | 0.00 | 0.12 | 0.00 | 92 | 1011.6 |
| 20260504041028 | 55 | 78 | 0.0 | 0.0 | 0.00 | 0.12 | 0.00 | 92 | 1011.6 |
| 20260504040527 | 55 | 79 | 0.0 | 0.0 | 0.00 | 0.12 | 0.00 | 92 | 1011.6 |
| 20260504040027 | 55 | 78 | 0.0 | 0.0 | 0.00 | 0.12 | 0.00 | 92 | 1011.5 |
| 20260504035519 | 55 | 78 | 0.0 | 0.0 | 0.00 | 0.13 | 0.00 | 92 | 1011.5 |
| 20260504035018 | 55 | 78 | 0.0 | 0.0 | 0.00 | 0.13 | 0.00 | 92 | 1011.4 |
| 20260504034518 | 55 | 79 | 0.0 | 0.0 | 0.00 | 0.13 | 0.00 | 92 | 1011.4 |
| 20260504034028 | 55 | 78 | 0.0 | 0.0 | 0.00 | 0.13 | 0.00 | 92 | 1011.4 |
| 20260504033518 | 55 | 78 | 0.0 | 0.0 | 0.00 | 0.13 | 0.00 | 92 | 1011.5 |
| 20260504033010 | 55 | 78 | 0.0 | 0.0 | 0.00 | 0.13 | 0.00 | 92 | 1011.5 |
| 20260504032020 | 54 | 78 | 0.0 | 0.0 | 0.00 | 0.14 | 0.00 | 92 | 1011.6 |
| 20260504031520 | 54 | 78 | 0.0 | 0.0 | 0.00 | 0.14 | 0.00 | 92 | 1011.6 |
| 20260504031021 | 54 | 78 | 0.0 | 0.0 | 0.00 | 0.14 | 0.00 | 92 | 1011.5 |
| 20260504030520 | 54 | 78 | 0.0 | 0.0 | 0.00 | 0.14 | 0.00 | 92 | 1011.4 |
| 20260504030013 | 54 | 78 | 0.0 | 0.0 | 0.00 | 0.14 | 0.00 | 92 | 1011.3 |
| 20260504025521 | 54 | 79 | 0.0 | 0.0 | 0.00 | 0.14 | 0.00 | 92 | 1011.3 |
| 20260504025018 | 54 | 79 | 0.0 | 0.0 | 0.00 | 0.14 | 0.00 | 92 | 1011.3 |
| 20260504024511 | 54 | 79 | 0.0 | 0.0 | 0.00 | 0.14 | 0.00 | 92 | 1011.3 |
| 20260504024013 | 54 | 63 | 0.0 | 0.0 | 0.00 | 0.14 | 0.00 | 92 | 1011.2 |
| 20260504023517 | 54 | 63 | 0.0 | 0.0 | 0.00 | 0.14 | 0.00 | 92 | 1011.2 |
| 20260504022950 | 54 | 64 | 0.0 | 0.0 | 0.00 | 0.14 | 0.00 | 92 | 1011.2 |
| 20260504022450 | 54 | 63 | 0.0 | 0.0 | 0.00 | 0.14 | 0.00 | 92 | 1011.2 |
| 20260504021949 | 53 | 63 | 0.0 | 0.0 | 0.00 | 0.14 | 0.00 | 92 | 1011.2 |
| 20260504021441 | 53 | 63 | 0.0 | 0.0 | 0.00 | 0.14 | 0.00 | 92 | 1011.3 |
| 20260504020932 | 53 | 63 | 0.0 | 0.0 | 0.00 | 0.14 | 0.00 | 92 | 1011.2 |
| 20260504020437 | 53 | 63 | 0.0 | 0.0 | 0.00 | 0.14 | 0.00 | 92 | 1011.3 |
| 20260504015933 | 53 | 63 | 0.0 | 0.0 | 0.00 | 0.14 | 0.00 | 92 | 1011.3 |
| 20260504015434 | 53 | 63 | 0.0 | 0.0 | 0.00 | 0.14 | 0.00 | 92 | 1011.3 |
| 20260504014933 | 53 | 63 | 0.0 | 0.0 | 0.00 | 0.14 | 0.00 | 92 | 1011.5 |
| 20260504014409 | 53 | 63 | 0.0 | 0.0 | 0.00 | 0.14 | 0.00 | 92 | 1011.5 |
| 20260504013908 | 53 | 63 | 0.0 | 0.0 | 0.00 | 0.14 | 0.00 | 92 | 1011.5 |
| 20260504013408 | 53 | 70 | 0.0 | 1.0 | 0.00 | 0.14 | 0.00 | 92 | 1011.6 |
| 20260504012850 | 53 | 70 | 0.0 | 1.0 | 0.00 | 0.14 | 0.00 | 92 | 1011.6 |
| 20260504012340 | 53 | 70 | 0.0 | 1.0 | 0.00 | 0.14 | 0.00 | 92 | 1011.5 |
| 20260504011836 | 53 | 34 | 0.0 | 1.0 | 0.00 | 0.14 | 0.00 | 92 | 1011.5 |
| 20260504011333 | 53 | 55 | 0.0 | 0.0 | 0.00 | 0.14 | 0.00 | 92 | 1011.6 |
| 20260504010820 | 53 | 70 | 0.0 | 0.0 | 0.00 | 0.14 | 0.00 | 92 | 1011.5 |
| 20260504010308 | 54 | 68 | 0.0 | 0.0 | 0.00 | 0.14 | 0.00 | 92 | 1011.4 |
| 20260504005306 | 54 | 95 | 0.0 | 0.0 | 0.00 | 0.14 | 0.00 | 92 | 1011.4 |
| 20260504004253 | 54 | 95 | 0.0 | 0.0 | 0.00 | 0.14 | 0.00 | 91 | 1011.3 |
| 20260504003744 | 54 | 95 | 0.0 | 0.0 | 0.00 | 0.14 | 0.00 | 92 | 1011.2 |
| 20260504002736 | 54 | 95 | 0.0 | 0.0 | 0.00 | 0.14 | 0.00 | 91 | 1011.2 |
| 20260504002221 | 54 | 95 | 0.0 | 0.0 | 0.00 | 0.14 | 0.00 | 91 | 1011.2 |
| 20260504001710 | 54 | 95 | 0.0 | 0.0 | 0.00 | 0.14 | 0.00 | 91 | 1011.2 |
| 20260504000633 | 54 | 95 | 0.0 | 0.0 | 0.00 | 0.14 | 0.00 | 91 | 1011.2 |
| 20260504000133 | 54 | 95 | 0.0 | 0.0 | 0.00 | 0.14 | 0.00 | 91 | 1011.3 |
| 20260503235609 | 54 | 95 | 0.0 | 0.0 | 0.00 | 0.14 | 0.00 | 91 | 1011.3 |
| 20260503235106 | 55 | 159 | 0.0 | 0.0 | 0.00 | 0.14 | 0.00 | 91 | 1011.5 |
| 20260503234606 | 55 | 169 | 0.0 | 0.0 | 0.00 | 0.14 | 0.00 | 91 | 1011.4 |
| 20260503233534 | 55 | 146 | 0.0 | 0.0 | 0.00 | 0.14 | 0.00 | 91 | 1011.4 |
| 20260503233037 | 55 | 152 | 0.0 | 0.0 | 0.00 | 0.14 | 0.00 | 91 | 1011.4 |
| 20260503232518 | 55 | 152 | 0.0 | 0.0 | 0.00 | 0.14 | 0.00 | 91 | 1011.4 |
| 20260503232015 | 55 | 152 | 0.0 | 0.0 | 0.00 | 0.14 | 0.00 | 91 | 1011.3 |
| 20260503231518 | 55 | 152 | 0.0 | 0.0 | 0.00 | 0.14 | 0.00 | 91 | 1011.3 |
| 20260503231021 | 55 | 152 | 0.0 | 0.0 | 0.00 | 0.14 | 0.00 | 91 | 1011.3 |
| 20260503230534 | 55 | 152 | 0.0 | 0.0 | 0.00 | 0.14 | 0.00 | 91 | 1011.3 |
| 20260503230025 | 55 | 152 | 0.0 | 0.0 | 0.00 | 0.14 | 0.00 | 91 | 1011.3 |
| 20260503224933 | 55 | 152 | 0.0 | 0.0 | 0.00 | 0.15 | 0.00 | 91 | 1011.3 |
| 20260503224435 | 55 | 152 | 0.0 | 0.0 | 0.00 | 0.15 | 0.00 | 91 | 1011.1 |
| 20260503223936 | 55 | 152 | 0.0 | 0.0 | 0.00 | 0.15 | 0.00 | 91 | 1011.0 |
| 20260503223435 | 55 | 152 | 0.0 | 0.0 | 0.00 | 0.15 | 0.00 | 91 | 1011.1 |
| 20260503222933 | 55 | 152 | 0.0 | 0.0 | 0.00 | 0.15 | 0.00 | 91 | 1011.0 |
| 20260503222435 | 56 | 152 | 0.0 | 0.0 | 0.00 | 0.15 | 0.00 | 91 | 1011.1 |
| 20260503221934 | 56 | 152 | 0.0 | 0.0 | 0.00 | 0.15 | 0.00 | 91 | 1011.1 |
| 20260503221431 | 56 | 152 | 0.0 | 0.0 | 0.00 | 0.15 | 0.00 | 91 | 1011.1 |
| 20260503220916 | 56 | 77 | 0.0 | 0.0 | 0.00 | 0.15 | 0.00 | 91 | 1011.1 |
| 20260503220414 | 56 | 77 | 0.0 | 0.0 | 0.00 | 0.15 | 0.00 | 91 | 1011.1 |
| 20260503215912 | 56 | 77 | 0.0 | 0.0 | 0.00 | 0.15 | 0.15 | 91 | 1011.1 |
| 20260503215408 | 56 | 77 | 0.0 | 0.0 | 0.00 | 0.15 | 0.15 | 91 | 1011.1 |
| 20260503214907 | 56 | 77 | 0.0 | 0.0 | 0.00 | 0.15 | 0.15 | 91 | 1011.1 |
| 20260503214404 | 56 | 77 | 0.0 | 0.0 | 0.00 | 0.15 | 0.15 | 91 | 1011.1 |
| 20260503213835 | 56 | 77 | 0.0 | 0.0 | 0.00 | 0.15 | 0.15 | 91 | 1011.2 |
| 20260503213334 | 56 | 77 | 0.0 | 0.0 | 0.00 | 0.15 | 0.15 | 91 | 1011.2 |
| 20260503212812 | 56 | 75 | 0.0 | 0.0 | 0.00 | 0.15 | 0.15 | 91 | 1011.2 |
| 20260503212308 | 56 | 150 | 0.0 | 0.0 | 0.00 | 0.15 | 0.15 | 91 | 1011.1 |
| 20260503211810 | 56 | 150 | 0.0 | 0.0 | 0.00 | 0.15 | 0.15 | 91 | 1011.0 |
| 20260503211307 | 56 | 150 | 0.0 | 0.0 | 0.00 | 0.15 | 0.15 | 91 | 1011.0 |
| 20260503205735 | 56 | 150 | 0.0 | 0.0 | 0.00 | 0.15 | 0.15 | 91 | 1010.9 |
| 20260503205232 | 56 | 150 | 0.0 | 0.0 | 0.00 | 0.15 | 0.15 | 91 | 1010.9 |
| 20260503204735 | 56 | 150 | 0.0 | 0.0 | 0.00 | 0.15 | 0.15 | 91 | 1011.0 |
| 20260503204216 | 56 | 150 | 0.0 | 0.0 | 0.00 | 0.15 | 0.15 | 91 | 1011.0 |
| 20260503203706 | 56 | 150 | 0.0 | 0.0 | 0.00 | 0.15 | 0.15 | 91 | 1011.1 |
| 20260503203206 | 57 | 150 | 0.0 | 0.0 | 0.00 | 0.15 | 0.15 | 91 | 1011.0 |
| 20260503202641 | 57 | 150 | 0.0 | 0.0 | 0.00 | 0.15 | 0.15 | 91 | 1011.0 |
| 20260503201635 | 57 | 150 | 0.0 | 0.0 | 0.00 | 0.15 | 0.15 | 91 | 1010.8 |
| 20260503201125 | 57 | 150 | 0.0 | 1.0 | 0.00 | 0.15 | 0.15 | 91 | 1010.8 |
| 20260503200611 | 57 | 150 | 0.0 | 1.0 | 0.00 | 0.15 | 0.15 | 90 | 1010.8 |
| 20260503200108 | 57 | 150 | 0.0 | 1.0 | 0.00 | 0.15 | 0.15 | 90 | 1010.8 |
| 20260503195607 | 57 | 150 | 0.0 | 1.0 | 0.00 | 0.15 | 0.15 | 90 | 1010.8 |
| 20260503195111 | 57 | 132 | 0.0 | 0.0 | 0.00 | 0.15 | 0.15 | 90 | 1010.8 |
| 20260503194604 | 57 | 132 | 0.0 | 0.0 | 0.00 | 0.15 | 0.15 | 90 | 1010.8 |
| 20260503194105 | 57 | 132 | 0.0 | 0.0 | 0.00 | 0.15 | 0.15 | 90 | 1010.7 |
| 20260503193608 | 57 | 136 | 0.0 | 0.0 | 0.00 | 0.15 | 0.15 | 90 | 1010.6 |
| 20260503193107 | 57 | 136 | 0.0 | 0.0 | 0.00 | 0.15 | 0.15 | 90 | 1010.5 |
| 20260503192052 | 57 | 148 | 0.0 | 0.0 | 0.00 | 0.15 | 0.15 | 90 | 1010.4 |
| 20260503191536 | 57 | 148 | 0.0 | 0.0 | 0.00 | 0.15 | 0.15 | 90 | 1010.4 |
| 20260503191027 | 57 | 160 | 0.0 | 0.0 | 0.00 | 0.15 | 0.15 | 90 | 1010.3 |
| 20260503190527 | 57 | 155 | 0.0 | 0.0 | 0.00 | 0.15 | 0.15 | 90 | 1010.3 |
| 20260503190031 | 57 | 155 | 0.0 | 0.0 | 0.00 | 0.15 | 0.15 | 90 | 1010.3 |
| 20260503185524 | 58 | 155 | 0.0 | 0.0 | 0.00 | 0.15 | 0.15 | 90 | 1010.2 |
| 20260503185030 | 58 | 155 | 0.0 | 0.0 | 0.00 | 0.15 | 0.15 | 90 | 1010.2 |
| 20260503184526 | 58 | 155 | 0.0 | 0.0 | 0.00 | 0.15 | 0.15 | 90 | 1010.2 |
| 20260503184030 | 58 | 156 | 0.0 | 0.0 | 0.00 | 0.15 | 0.15 | 90 | 1010.1 |
| 20260503183525 | 58 | 167 | 0.0 | 0.0 | 0.00 | 0.15 | 0.15 | 90 | 1010.1 |
| 20260503183022 | 58 | 167 | 0.0 | 0.0 | 0.00 | 0.15 | 0.15 | 90 | 1010.0 |
| 20260503182518 | 58 | 167 | 0.0 | 0.0 | 0.00 | 0.15 | 0.15 | 90 | 1009.9 |
| 20260503182023 | 58 | 167 | 0.0 | 1.0 | 0.00 | 0.15 | 0.15 | 90 | 1009.9 |
| 20260503181521 | 58 | 167 | 0.0 | 1.0 | 0.00 | 0.15 | 0.15 | 90 | 1009.8 |